ORBCOMM FM21 [-]

Last updated on Fri Dec 29 2023 00:02:54 GMT+0000 (Coordinated Universal Time)

1 25475U 98053A 23361.88556241 .00001563 00000+0 59535-3 0 9996 2 25475 45.0096 288.5887 0001634 348.6884 11.3926 14.34798756320012
UTC large
Height (km)
Speed (km/s)
/
Latitude / Longitude
Inclination (degrees)
Orbital Period (minutes)
Azimuth
Elevation
Range (km)
Doppler Factor

Next 0 passes for location: London (51.5072 / 0.1276)

Sorry there are no passes over London.
ORBCOMM FM21 [-]